PARS 1

Last updated on Thu Oct 30 2025 00:02:32 GMT+0000 (Coordinated Universal Time)

1 59065U 24039Q 25302.55709701 .00014097 00000+0 35932-3 0 9994 2 59065 97.4584 272.6143 0008944 217.8715 142.1902 15.39612955 93080
UTC large
Height (km)
Speed (km/s)
/
Latitude / Longitude
Inclination (degrees)
Orbital Period (minutes)
Azimuth
Elevation
Range (km)
Doppler Factor

Next 0 passes for location: London (51.5072 / 0.1276)

Sorry there are no passes over London.